Simultaneous Nadir Overpasses (SNOs) Predictions

Prediction of SNOs between AQUA and METOP-B Satellite Orbit:

Table of predicted SNOs for the next 14.0 days since TLE Epoch: 3/11/2023
Index Date (AQUA) Time (AQUA) Lat,Lon (AQUA) SZA (AQUA ) Date (METOP-B) Time (METOP-B) Lat,Lon (METOP-B) SZA (METOP-B ) Distance(km) Time Diff (sec)
1 03/11/2023 19:03:38 -74.32, 69.48 102.06 03/11/2023 19:03:13 -74.32, 69.54 102.06 2.05 25
2 03/11/2023 19:53:05 74.36,-122.97 77.98 03/11/2023 19:53:52 74.35,-123.04 77.96 2.49 47
3 03/14/2023 12:57:05 -74.29, 161.22 103.18 03/14/2023 12:56:12 -74.31, 161.29 103.15 3.16 53
4 03/14/2023 13:46:32 74.34, -31.26 76.86 03/14/2023 13:46:51 74.35, -31.29 76.87 1.23 19
5 03/17/2023 06:50:26 -74.14,-106.75 104.44 03/17/2023 06:49:14 -74.10,-107.50 104.44 23.52 72
6 03/17/2023 07:39:56 74.35, 60.40 75.78 03/17/2023 07:39:49 74.32, 60.40 75.76 2.73 7
7 03/17/2023 08:29:21 -74.39,-132.05 104.20 03/17/2023 08:30:29 -74.42,-132.03 104.18 3.10 68
8 03/20/2023 01:33:18 74.33, 152.12 74.67 03/20/2023 01:32:47 74.33, 152.17 74.67 1.53 31
9 03/20/2023 02:22:43 -74.37, -40.31 105.31 03/20/2023 02:23:28 -74.37, -40.38 105.31 2.18 45
10 03/22/2023 19:26:37 74.29,-116.09 73.54 03/22/2023 19:25:45 74.32,-116.10 73.57 2.67 52
11 03/22/2023 20:16:03 -74.38, 51.36 106.39 03/22/2023 20:16:26 -74.36, 51.35 106.41 1.58 23



Historial Predications of SNOs between AQUA and METOP-B
